EA7RX-13 Weather Reports


Display with metric or nautical units.
time (UTC)temp
F
wind
direction
speed
MPH
gust
MPH
rain 1hr
in
rain 24hr
in
rain mn
in
humidity
%
barometer
mb
20260502160349 78 0.0 0.0 0.00 0.00 0.00 61 1012.9
20260502151349 79 0.0 0.0 0.00 0.00 0.00 64 1013.2
20260502150349 79 0.0 0.0 0.00 0.00 0.00 66 1013.4
20260502130349 80 0.0 0.0 0.00 0.00 0.00 61 1014.9
20260502123349 79 0.0 0.0 0.00 0.00 0.00 62 1015.1
20260502122349 79 0.0 0.0 0.00 0.00 0.00 64 1015.3
20260502121349 82 0.0 0.0 0.00 0.00 0.00 62 1015.1
20260502120349 78 0.0 0.0 0.00 0.00 0.00 63 1015.8
20260502115349 79 0.0 0.0 0.00 0.00 0.00 58 1015.5
20260502114349 79 0.0 0.0 0.00 0.00 0.00 61 1015.6
20260502113349 80 0.0 0.0 0.00 0.00 0.00 58 1015.9
20260502112349 80 0.0 0.0 0.00 0.00 0.00 61 1015.8
20260502111349 79 0.0 0.0 0.00 0.00 0.00 64 1016.0
20260502110349 80 0.0 0.0 0.00 0.00 0.00 60 1016.0
20260502105349 77 0.0 0.0 0.00 0.00 0.00 64 1016.2
20260502104348 78 0.0 0.0 0.00 0.00 0.00 62 1016.3
20260502103349 75 0.0 0.0 0.00 0.00 0.00 71 1016.5
20260502102348 74 0.0 0.0 0.00 0.00 0.00 69 1016.6
20260502101348 76 0.0 0.0 0.00 0.00 0.00 71 1016.5
20260502100349 75 0.0 0.0 0.00 0.00 0.00 74 1016.7
20260502091348 73 0.0 0.0 0.00 0.00 0.00 87 1016.9
20260502090348 74 0.0 0.0 0.00 0.00 0.00 86 1016.8
20260502071348 68 0.0 0.0 0.00 0.00 0.00 10 1017.1
20260502070348 68 0.0 0.0 0.00 0.00 0.00 10 1017.0
20260502065348 68 0.0 0.0 0.00 0.00 0.00 10 1017.1
20260502064348 67 0.0 0.0 0.00 0.00 0.00 10 1017.1
20260502063348 67 0.0 0.0 0.00 0.00 0.00 10 1017.1
20260502062348 66 0.0 0.0 0.00 0.00 0.00 10 1017.2
20260502061348 66 0.0 0.0 0.00 0.00 0.00 10 1017.2
20260502060348 66 0.0 0.0 0.00 0.00 0.00 10 1017.1
20260502055348 66 0.0 0.0 0.00 0.00 0.00 10 1017.1
20260502054348 65 0.0 0.0 0.00 0.00 0.00 10 1017.1
20260502053348 65 0.0 0.0 0.00 0.00 0.00 10 1017.1
20260502052348 65 0.0 0.0 0.00 0.00 0.00 10 1017.2
20260502051348 65 0.0 0.0 0.00 0.00 0.00 10 1017.2
20260502050348 65 0.0 0.0 0.00 0.00 0.00 10 1017.1
20260502045348 65 0.0 0.0 0.00 0.00 0.00 10 1017.1
20260502044348 65 0.0 0.0 0.00 0.00 0.00 10 1017.1
20260502043348 65 0.0 0.0 0.00 0.00 0.00 10 1017.1
20260502042348 65 0.0 0.0 0.00 0.00 0.00 10 1017.3
20260502041348 64 0.0 0.0 0.00 0.00 0.00 10 1017.5
20260502040348 65 0.0 0.0 0.00 0.00 0.00 10 1017.5
20260502035348 65 0.0 0.0 0.00 0.00 0.00 10 1017.6
20260502034348 65 0.0 0.0 0.00 0.00 0.00 10 1017.7
20260502033348 65 0.0 0.0 0.00 0.00 0.00 10 1017.7
20260502032348 65 0.0 0.0 0.00 0.00 0.00 10 1017.7
20260502031348 66 0.0 0.0 0.00 0.00 0.00 10 1017.7
20260502030348 66 0.0 0.0 0.00 0.00 0.00 10 1017.7
20260502025348 67 0.0 0.0 0.00 0.00 0.00 10 1017.7
20260502024348 67 0.0 0.0 0.00 0.00 0.00 10 1017.7
20260502023348 67 0.0 0.0 0.00 0.00 0.00 10 1017.8
20260502022348 67 0.0 0.0 0.00 0.00 0.00 10 1017.8
20260502021348 67 0.0 0.0 0.00 0.00 0.00 10 1018.0
20260502020348 67 0.0 0.0 0.00 0.00 0.00 10 1018.0
20260502015348 67 0.0 0.0 0.00 0.00 0.00 10 1018.0
20260502014348 67 0.0 0.0 0.00 0.00 0.00 10 1017.9
20260502013348 68 0.0 0.0 0.00 0.00 0.00 10 1017.9
20260502012348 68 0.0 0.0 0.00 0.00 0.00 10 1018.0
20260502011348 68 0.0 0.0 0.00 0.00 0.00 10 1017.9
20260502010348 69 0.0 0.0 0.00 0.00 0.00 10 1017.9
20260502005348 69 0.0 0.0 0.00 0.00 0.00 10 1018.0
20260502004348 70 0.0 0.0 0.00 0.00 0.00 10 1017.9
20260502003348 70 0.0 0.0 0.00 0.00 0.00 10 1017.7
20260502002348 70 0.0 0.0 0.00 0.00 0.00 10 1017.5
20260502001348 70 0.0 0.0 0.00 0.00 0.00 10 1017.6
20260502000348 70 0.0 0.0 0.00 0.00 0.00 10 1017.3
20260501235348 70 0.0 0.0 0.00 0.00 0.00 10 1017.5
20260501234348 70 0.0 0.0 0.00 0.00 0.00 10 1017.6
20260501233348 70 0.0 0.0 0.00 0.00 0.00 10 1017.8
20260501232348 69 0.0 0.0 0.00 0.00 0.00 10 1017.8
20260501231348 69 0.0 0.0 0.00 0.00 0.00 10 1017.9
20260501230348 70 0.0 0.0 0.00 0.00 0.00 10 1017.8
20260501225348 70 0.0 0.0 0.00 0.00 0.00 10 1017.9
20260501224348 70 0.0 0.0 0.00 0.00 0.00 10 1017.9
20260501223348 70 0.0 0.0 0.00 0.00 0.00 10 1017.9
20260501222348 70 0.0 0.0 0.00 0.00 0.00 10 1017.8
20260501221349 70 0.0 0.0 0.00 0.00 0.00 10 1017.9
20260501220348 70 0.0 0.0 0.00 0.00 0.00 10 1018.0
20260501215348 70 0.0 0.0 0.00 0.00 0.00 10 1018.0
20260501214348 70 0.0 0.0 0.00 0.00 0.00 10 1018.1
20260501213348 70 0.0 0.0 0.00 0.00 0.00 10 1018.1
20260501212348 70 0.0 0.0 0.00 0.00 0.00 10 1018.0
20260501211348 70 0.0 0.0 0.00 0.00 0.00 10 1018.0
20260501210348 70 0.0 0.0 0.00 0.00 0.00 10 1018.0
20260501205348 69 0.0 0.0 0.00 0.00 0.00 10 1017.9
20260501204348 70 0.0 0.0 0.00 0.00 0.00 10 1017.6
20260501203348 70 0.0 0.0 0.00 0.00 0.00 10 1017.7
20260501202348 70 0.0 0.0 0.00 0.00 0.00 10 1017.6
20260501201348 71 0.0 0.0 0.00 0.00 0.00 10 1017.4
20260501200348 71 0.0 0.0 0.00 0.00 0.00 10 1017.3
20260501195348 72 0.0 0.0 0.00 0.00 0.00 10 1017.0
20260501194348 72 0.0 0.0 0.00 0.00 0.00 10 1016.9
20260501193348 72 0.0 0.0 0.00 0.00 0.00 10 1016.7
20260501192348 73 0.0 0.0 0.00 0.00 0.00 10 1016.7
20260501191348 73 0.0 0.0 0.00 0.00 0.00 88 1016.5
20260501190348 73 0.0 0.0 0.00 0.00 0.00 88 1016.6
20260501185348 74 0.0 0.0 0.00 0.00 0.00 90 1016.5
20260501184348 74 0.0 0.0 0.00 0.00 0.00 86 1016.2
20260501183348 75 0.0 0.0 0.00 0.00 0.00 82 1016.1
20260501182348 76 0.0 0.0 0.00 0.00 0.00 72 1016.0
20260501181348 76 0.0 0.0 0.00 0.00 0.00 64 1015.7
20260501180348 77 0.0 0.0 0.00 0.00 0.00 67 1015.5
20260501175348 77 0.0 0.0 0.00 0.00 0.00 60 1015.3
20260501174348 78 0.0 0.0 0.00 0.00 0.00 57 1015.4
20260501173348 78 0.0 0.0 0.00 0.00 0.00 58 1015.2
20260501172348 78 0.0 0.0 0.00 0.00 0.00 58 1015.2
20260501171348 78 0.0 0.0 0.00 0.00 0.00 58 1015.1
20260501170348 80 0.0 0.0 0.00 0.00 0.00 55 1014.8
20260501165348 81 0.0 0.0 0.00 0.00 0.00 55 1014.7
20260501164348 82 0.0 0.0 0.00 0.00 0.00 55 1014.6
20260501163348 82 0.0 0.0 0.00 0.00 0.00 54 1014.5
20260501162348 80 0.0 0.0 0.00 0.00 0.00 55 1014.8
20260501161348 82 0.0 0.0 0.00 0.00 0.00 54 1014.6